Regional Weather Roundup
Issued by NWS

Home | Current Version | Previous Version | Graphics & Text | Print | Product List | Glossary On
Versions: 1 2 3 4 5 6 7 8 9 10 11 12 13 14 15 16 17 18 19 20 21 22 23 24 25 26 27 28 29 30 31 32 33 34 35 36 37 38 39 40 41 42 43 44 45 46 47 48 49 50
000
ASUS43 KIND 031309
RWRIN

WEATHER ROUNDUP FOR INDIANA
NATIONAL WEATHER SERVICE INDIANAPOLIS IN
900 AM EDT SUN MAY 03 2015

NOTE: "FAIR" INDICATES FEW OR NO CLOUDS BELOW 12,000 FEET WITH NO
SIGNIFICANT WEATHER AND/OR OBSTRUCTIONS TO VISIBILITY.

* - STATION DOES NOT REPORT WEATHER SUCH AS PRECIPITATION OR FOG.

+ - STATION NOT QUALITY CONTROLLED BY THE NATIONAL WEATHER SERVICE.
    USE DATA WITH CAUTION...ESPECIALLY DEWPOINT AND RELATIVE
    HUMIDITY OBSERVATIONS.

INZ001>003-010>013-019-020-031400-
NORTHWEST INDIANA

CITY           SKY/WX    TMP DP  RH WIND       PRES   REMARKS
GARY /AIRPORT/ PTSUNNY   66 N/A N/A SW8       30.01S
KNOX *+        SUNNY     63  23  22 S9        30.03S
LA PORTE +     MOSUNNY   62  46  53 S6        30.04S
MICHIGAN CITY+ MOSUNNY   64  36  34 S7        30.02S
MONTICELLO +   MOSUNNY   60  48  63 S3        30.05S
VALPARAISO     MOSUNNY   61  45  55 S7        30.03S

$$

LMZ046-743>745-031400-
SOUTHERN LAKE MICHIGAN

STATION/POSITION TIME  TEMP    WIND        PRES    WAVE
                       AIR SEA DIR/SP/G            HT
                 (UTC) (F)     (DEG/KT/KT) (MB)    (FT)
BURNS HARBOR     1300   63     190/ 12/ 14 1016.6S
MICHIGAN CITY    1300   62     170/  8/ 10   N/A
5NW MICH CITY    1300   57 50  190/  6/  8   N/A     1

$$

INZ004-005-014>016-021>024-031400-
NORTH CENTRAL INDIANA

CITY           SKY/WX    TMP DP  RH WIND       PRES   REMARKS
ELKHART        MOSUNNY   59  39  47 CALM      30.05S
GOSHEN         SUNNY     63  45  51 SW10      30.06R
LOGANSPORT +   MOSUNNY   61  45  55 S8        30.07S
PERU/GRISSOM   MOSUNNY   59  49  67 S8        30.06S
ROCHESTER +    MOSUNNY   64  46  52 S6        30.07R
SOUTH BEND     SUNNY     64  43  46 S8        30.04F
WARSAW +       SUNNY     61  45  55 SW3       30.07S

$$

INZ006>009-017-018-025>027-031400-
NORTHEAST INDIANA

CITY           SKY/WX    TMP DP  RH WIND       PRES   REMARKS
ANGOLA *+      SUNNY     63  46  55 SW7       30.07S
AUBURN +       SUNNY     63  43  48 SW6       30.09S
FORT WAYNE     MOSUNNY   60  48  64 SW5       30.10R
HUNTINGTON +   SUNNY     60  46  61 S6        30.09S

$$

INZ028-029-035-036-043>045-051>053-031400-
WEST CENTRAL INDIANA

CITY           SKY/WX    TMP DP  RH WIND       PRES   REMARKS
CRAWFORDSVL +  CLOUDY    57  44  60 S3        30.08R
GREENCASTLE +  CLOUDY    59  46  63 S3        30.09S
LAFAYETTE      CLOUDY    59  48  67 S3        30.05F
TERRE HAUTE    MOSUNNY   63  50  62 S8        30.08R

$$

INZ030>032-037>040-046>048-054>057-064-065-031400-
CENTRAL INDIANA

CITY           SKY/WX    TMP DP  RH WIND       PRES   REMARKS
CP ATTERBURY + CLOUDY    55  50  82 CALM      30.12R
COLUMBUS       SUNNY     57  48  72 S7        30.12R
FISHERS *+     CLOUDY    59  50  72 S7        30.10R
FRANKFORT +    PTSUNNY   59  49  68 SE3       30.08F
GREENWOOD *+   CLOUDY    59  48  67 SE3       30.11R
INDIANAPOLIS   CLOUDY    61  47  59 S7        30.08R
-EAGLE CREEK   CLOUDY    58  48  69 S3        30.09R
MARION +       MOSUNNY   60  46  61 S7        30.10R
MT COMFORT *+  PTSUNNY   59  39  47 S7        30.10S
SHELBYVILLE    CLOUDY    60  48  64 S6        30.11R
ZIONSVILLE +   CLOUDY    59  47  64 S3        30.10S

$$

INZ033-034-041-042-049-050-058-059-031400-
EAST CENTRAL INDIANA

CITY           SKY/WX    TMP DP  RH WIND       PRES   REMARKS
MUNCIE         SUNNY     63  45  51 S7        30.10S

$$

INZ060-061-067>069-081>083-085>088-031400-
SOUTHWEST INDIANA

CITY           SKY/WX    TMP DP  RH WIND       PRES   REMARKS
EVANSVILLE     FAIR      61  51  70 CALM      30.10S
HUNTINGBURG *+ PTSUNNY   57  48  72 SE6       30.11S
WASHINGTON +   CLOUDY    58  49  71 S6        30.10R

$$

INZ062-063-066-070>080-084-089>092-031400-
SOUTH CENTRAL AND SOUTHEAST INDIANA

CITY           SKY/WX    TMP DP  RH WIND       PRES   REMARKS
BEDFORD +      CLOUDY    57  46  67 SE3       30.11S
BLOOMINGTON    CLOUDY    57  49  74 CALM      30.10S
MADISON *+     CLOUDY    59  50  72 CALM      30.15R
NORTH VERNON + CLOUDY    59  50  72 CALM      30.13R
SEYMOUR +      CLOUDY    57  50  77 CALM      30.12R

$$




USA.gov is the U.S. government's official web portal to all federal, state and local government web resources and services.